Location: Fort Worth, Tx
(32.7431°N, 97.3695°W)
Time: 01:26:14
(UTC-04:00)

A-11 Canister half - Pass Details

Date: 24 February 2024
Orbit: 1525 x 1683 km, 47.3° (Epoch: 24 April)

Event Time Altitude Azimuth Distance (km) Brightness Sun altitude
Exits shadow 04:25:30 44° 91° (E) 2,012 9.7 -46.0°
Drops below altitude 10° 04:31:45 10° 112° (ESE) 3,734 11.4 -44.7°
Sets 04:34:53 0° 116° (ESE) 4,734 12.0 -44.1°
